,,Stat6,,Stat2,,Stat8,,Stat9,,Stat10,,Wind1,,Wind1,
time,status,PA1M_AVG,status,PR1M_SUM,status,RH1M_AVG,status,SR1M_AVG,status,TA1M_AVG,status,W1dAve1m,status,W1sAve1m,
2008-02-09, 00:00:00,VALID,917.914,VALID,0,VALID,100,VALID,0.0509425,VALID,19.6878,VALID,123,VALID,0,
2008-02-09, 00:01:00,VALID,917.882,VALID,0,VALID,100,VALID,0.0169808,VALID,19.6883,VALID,123,VALID,0,
2008-02-09, 00:02:00,VALID,917.866,VALID,0,VALID,100,VALID,0.0169808,VALID,19.6946,VALID,123,VALID,0,
2008-02-09, 00:03:00,VALID,917.85,VALID,0,VALID,100,VALID,0.0509425,VALID,19.6851,VALID,123,VALID,0,
2008-02-09, 00:04:00,VALID,917.828,VALID,0,VALID,100,VALID,0.0339617,VALID,19.6981,VALID,123,VALID,0,
2008-02-09, 00:05:00,VALID,917.818,VALID,0,VALID,100,VALID,0.0339617,VALID,19.6978,VALID,148,VALID,0,
2008-02-09, 00:06:00,VALID,917.809,VALID,0,VALID,100,VALID,0.0169808,VALID,19.6978,VALID,150,VALID,0,
2008-02-09, 00:07:00,VALID,917.781,VALID,0,VALID,100,VALID,0.0509425,VALID,19.6778,VALID,151,VALID,0,
2008-02-09, 00:08:00,VALID,917.763,VALID,0,VALID,100,VALID,0.0509425,VALID,19.6751,VALID,175,VALID,0,
2008-02-09, 00:09:00,VALID,917.766,VALID,0,VALID,100,VALID,0,VALID,19.6554,VALID,175,VALID,0,
2008-02-09, 00:10:00,VALID,917.751,VALID,0,VALID,100,VALID,0,VALID,19.6689,VALID,175,VALID,0,
2008-02-09, 00:11:00,VALID,917.732,VALID,0,VALID,100,VALID,0.0169808,VALID,19.6818,VALID,175,VALID,0,
2008-02-09, 00:12:00,VALID,917.719,VALID,0,VALID,100,VALID,0.0339617,VALID,19.6876,VALID,175,VALID,0,
2008-02-09, 00:13:00,VALID,917.719,VALID,0,VALID,100,VALID,0.0169808,VALID,19.7041,VALID,175,VALID,0,
2008-02-09, 00:14:00,VALID,917.726,VALID,0,VALID,100,VALID,0,VALID,19.727,VALID,175,VALID,0,
2008-02-09, 00:15:00,VALID,917.741,VALID,0,VALID,100,VALID,-0.0169808,VALID,19.727,VALID,175,VALID,0,
2008-02-09, 00:16:00,VALID,917.741,VALID,0,VALID,100,VALID,0.0169808,VALID,19.6981,VALID,175,VALID,0,
2008-02-09, 00:17:00,VALID,917.748,VALID,0,VALID,100,VALID,0,VALID,19.6883,VALID,175,VALID,0,
2008-02-09, 00:18:00,VALID,917.76,VALID,0,VALID,100,VALID,-0.0169808,VALID,19.6848,VALID,175,VALID,0,
2008-02-09, 00:19:00,VALID,917.759,VALID,0,VALID,100,VALID,0.0169808,VALID,19.6684,VALID,175,VALID,0,
2008-02-09, 00:20:00,VALID,917.759,VALID,0,VALID,100,VALID,0,VALID,19.6621,VALID,175,VALID,0,
2008-02-09, 00:21:00,VALID,917.743,VALID,0,VALID,100,VALID,0,VALID,19.6524,VALID,175,VALID,0,
2008-02-09, 00:22:00,VALID,917.742,VALID,0,VALID,100,VALID,0.0339617,VALID,19.6589,VALID,165,VALID,0.0239826,
2008-02-09, 00:23:00,VALID,917.738,VALID,0,VALID,100,VALID,0,VALID,19.6621,VALID,168,VALID,0.158984,
2008-02-09, 00:24:00,VALID,917.733,VALID,0,VALID,100,VALID,0.0169808,VALID,19.6689,VALID,173,VALID,0.258681,
2008-02-09, 00:25:00,VALID,917.711,VALID,0,VALID,100,VALID,0.0169808,VALID,19.6753,VALID,173,VALID,0.0494186,
2008-02-09, 00:26:00,VALID,917.707,VALID,0,VALID,100,VALID,0.0169808,VALID,19.6783,VALID,171,VALID,0.504954,
2008-02-09, 00:27:00,VALID,917.706,VALID,0,VALID,100,VALID,0,VALID,19.6848,VALID,171,VALID,0.204901,
2008-02-09, 00:28:00,VALID,917.721,VALID,0,VALID,100,VALID,0.0339617,VALID,19.6853,VALID,168,VALID,0.717928,
2008-02-09, 00:29:00,VALID,917.721,VALID,0,VALID,100,VALID,0.0169808,VALID,19.6781,VALID,169,VALID,0.788336,
2008-02-09, 00:30:00,VALID,917.728,VALID,0,VALID,100,VALID,0,VALID,19.6851,VALID,161,VALID,0.598772,
2008-02-09, 00:31:00,VALID,917.735,VALID,0,VALID,100,VALID,0.0169808,VALID,19.6851,VALID,162,VALID,1.03767,
2008-02-09, 00:32:00,VALID,917.741,VALID,0,VALID,100,VALID,0,VALID,19.6883,VALID,163,VALID,0.487043,
2008-02-09, 00:33:00,VALID,917.749,VALID,0,VALID,100,VALID,0,VALID,19.6951,VALID,169,VALID,0.894922,
2008-02-09, 00:34:00,VALID,917.741,VALID,0,VALID,100,VALID,-0.0169808,VALID,19.7075,VALID,155,VALID,0.569271,
2008-02-09, 00:35:00,VALID,917.757,VALID,0,VALID,100,VALID,0,VALID,19.7342,VALID,162,VALID,0.71059,
2008-02-09, 00:36:00,VALID,917.761,VALID,0,VALID,100,VALID,0.0169808,VALID,19.714,VALID,171,VALID,0.982986,
2008-02-09, 00:37:00,VALID,917.76,VALID,0,VALID,100,VALID,0,VALID,19.7345,VALID,168,VALID,0.909375,
2008-02-09, 00:38:00,VALID,917.761,VALID,0,VALID,100,VALID,-0.0339617,VALID,19.7313,VALID,157,VALID,0.507999,
2008-02-09, 00:39:00,VALID,917.768,VALID,0,VALID,100,VALID,-0.0169808,VALID,19.751,VALID,163,VALID,0.00236192,
2008-02-09, 00:40:00,VALID,917.78,VALID,0,VALID,100,VALID,0,VALID,19.7205,VALID,160,VALID,0,
2008-02-09, 00:41:00,VALID,917.772,VALID,0,VALID,100,VALID,0,VALID,19.7335,VALID,158,VALID,0.832386,
2008-02-09, 00:42:00,VALID,917.766,VALID,0,VALID,100,VALID,-0.0169808,VALID,19.734,VALID,155,VALID,0.881641,
2008-02-09, 00:43:00,VALID,917.77,VALID,0,VALID,100,VALID,-0.0339617,VALID,19.7273,VALID,153,VALID,1.06541,
2008-02-09, 00:44:00,VALID,917.766,VALID,0,VALID,100,VALID,-0.0509425,VALID,19.7275,VALID,156,VALID,1.03525,
2008-02-09, 00:45:00,VALID,917.765,VALID,0,VALID,100,VALID,-0.0339617,VALID,19.741,VALID,167,VALID,1.16292,
2008-02-09, 00:46:00,VALID,917.755,VALID,0,VALID,100,VALID,-0.0339617,VALID,19.7372,VALID,163,VALID,0.773438,
2008-02-09, 00:47:00,VALID,917.747,VALID,0,VALID,100,VALID,-0.0339617,VALID,19.7467,VALID,164,VALID,0.968395,
2008-02-09, 00:48:00,VALID,917.74,VALID,0,VALID,100,VALID,-0.0169808,VALID,19.757,VALID,175,VALID,0.920967,
2008-02-09, 00:49:00,VALID,917.728,VALID,0,VALID,100,VALID,-0.0679233,VALID,19.7732,VALID,170,VALID,0.2234,
2008-02-09, 00:50:00,VALID,917.699,VALID,0,VALID,100,VALID,0,VALID,19.7824,VALID,142,VALID,0.0570313,
2008-02-09, 00:51:00,VALID,917.693,VALID,0,VALID,100,VALID,0,VALID,19.7892,VALID,167,VALID,0.630682,
2008-02-09, 00:52:00,VALID,917.681,VALID,0,VALID,100,VALID,0,VALID,19.7892,VALID,163,VALID,0.313616,
2008-02-09, 00:53:00,VALID,917.651,VALID,0,VALID,100,VALID,-0.0339617,VALID,19.7931,VALID,166,VALID,0.404344,
2008-02-09, 00:54:00,VALID,917.641,VALID,0,VALID,99.999,VALID,-0.0339617,VALID,19.7894,VALID,165,VALID,0,
2008-02-09, 00:55:00,VALID,917.629,VALID,0,VALID,100,VALID,-0.0169808,VALID,19.7954,VALID,165,VALID,0,
2008-02-09, 00:56:00,VALID,917.62,VALID,0,VALID,100,VALID,-0.0169808,VALID,19.8091,VALID,166,VALID,0,
2008-02-09, 00:57:00,VALID,917.617,VALID,0,VALID,100,VALID,0,VALID,19.8086,VALID,169,VALID,0,
2008-02-09, 00:58:00,VALID,917.603,VALID,0,VALID,99.9591,VALID,-0.0509425,VALID,19.8056,VALID,179,VALID,0,
2008-02-09, 00:59:00,VALID,917.598,VALID,0,VALID,99.896,VALID,-0.0509425,VALID,19.7964,VALID,176,VALID,0,
2008-02-09, 01:00:00,VALID,917.583,VALID,0,VALID,99.9303,VALID,-0.0169808,VALID,19.7934,VALID,174,VALID,0,
2008-02-09, 01:01:00,VALID,917.572,VALID,0,VALID,99.9774,VALID,-0.0849042,VALID,19.7996,VALID,175,VALID,0,
2008-02-09, 01:02:00,VALID,917.564,VALID,0,VALID,99.9494,VALID,-0.0339617,VALID,19.7824,VALID,172,VALID,0,
2008-02-09, 01:03:00,VALID,917.558,VALID,0,VALID,99.9723,VALID,0,VALID,19.7792,VALID,179,VALID,0,
2008-02-09, 01:04:00,VALID,917.541,VALID,0,VALID,99.9977,VALID,-0.0169808,VALID,19.7597,VALID,179,VALID,0,
2008-02-09, 01:05:00,VALID,917.537,VALID,0,VALID,100,VALID,0,VALID,19.7565,VALID,176,VALID,0.308416,
2008-02-09, 01:06:00,VALID,917.522,VALID,0,VALID,100,VALID,0,VALID,19.7405,VALID,175,VALID,0.182812,
2008-02-09, 01:07:00,VALID,917.523,VALID,0,VALID,100,VALID,-0.0679233,VALID,19.7375,VALID,167,VALID,0,
2008-02-09, 01:08:00,VALID,917.511,VALID,0,VALID,100,VALID,-0.0169808,VALID,19.7345,VALID,168,VALID,0,
2008-02-09, 01:09:00,VALID,917.515,VALID,0,VALID,100,VALID,-0.0339617,VALID,19.7372,VALID,168,VALID,0,
2008-02-09, 01:10:00,VALID,917.508,VALID,0,VALID,100,VALID,-0.0339617,VALID,19.7305,VALID,168,VALID,0,
2008-02-09, 01:11:00,VALID,917.49,VALID,0,VALID,100,VALID,0,VALID,19.7108,VALID,168,VALID,0,
2008-02-09, 01:12:00,VALID,917.482,VALID,0,VALID,100,VALID,-0.0169808,VALID,19.711,VALID,183,VALID,0,
2008-02-09, 01:13:00,VALID,917.472,VALID,0,VALID,100,VALID,0,VALID,19.6981,VALID,185,VALID,0,
2008-02-09, 01:14:00,VALID,917.46,VALID,0,VALID,100,VALID,0,VALID,19.6923,VALID,176,VALID,0.176054,
2008-02-09, 01:15:00,VALID,917.438,VALID,0,VALID,100,VALID,-0.0339617,VALID,19.6821,VALID,167,VALID,1.1084,
2008-02-09, 01:16:00,VALID,917.426,VALID,0,VALID,100,VALID,-0.0169808,VALID,19.6888,VALID,164,VALID,0.499256,
2008-02-09, 01:17:00,VALID,917.406,VALID,0,VALID,100,VALID,0,VALID,19.6856,VALID,170,VALID,0.908296,
2008-02-09, 01:18:00,VALID,917.395,VALID,0,VALID,100,VALID,0,VALID,19.6751,VALID,171,VALID,0.676962,
2008-02-09, 01:19:00,VALID,917.387,VALID,0,VALID,100,VALID,0,VALID,19.6753,VALID,172,VALID,0.962209,
2008-02-09, 01:20:00,VALID,917.392,VALID,0,VALID,100,VALID,-0.0339617,VALID,19.6656,VALID,161,VALID,0.788876,
2008-02-09, 01:21:00,VALID,917.386,VALID,0,VALID,100,VALID,-0.0169808,VALID,19.6591,VALID,160,VALID,0.615091,
2008-02-09, 01:22:00,VALID,917.387,VALID,0,VALID,100,VALID,-0.0169808,VALID,19.6626,VALID,163,VALID,0.694382,
2008-02-09, 01:23:00,VALID,917.397,VALID,0,VALID,100,VALID,-0.0169808,VALID,19.6531,VALID,173,VALID,0.665923,
2008-02-09, 01:24:00,VALID,917.39,VALID,0,VALID,100,VALID,0,VALID,19.6397,VALID,178,VALID,0.818216,
2008-02-09, 01:25:00,VALID,917.387,VALID,0,VALID,100,VALID,0.0169808,VALID,19.6267,VALID,186,VALID,0.581577,
2008-02-09, 01:26:00,VALID,917.391,VALID,0,VALID,100,VALID,0,VALID,19.6237,VALID,192,VALID,0.346726,
2008-02-09, 01:27:00,VALID,917.395,VALID,0,VALID,100,VALID,-0.0509425,VALID,19.6112,VALID,191,VALID,0.869549,
2008-02-09, 01:28:00,VALID,917.39,VALID,0,VALID,100,VALID,-0.0169808,VALID,19.5972,VALID,188,VALID,0.947088,
2008-02-09, 01:29:00,VALID,917.369,VALID,0,VALID,100,VALID,-0.0339617,VALID,19.6075,VALID,175,VALID,0.649709,
2008-02-09, 01:30:00,VALID,917.345,VALID,0,VALID,100,VALID,0,VALID,19.5975,VALID,168,VALID,0.238281,
2008-02-09, 01:31:00,VALID,917.338,VALID,0,VALID,100,VALID,0,VALID,19.6075,VALID,175,VALID,0.777902,
2008-02-09, 01:32:00,VALID,917.322,VALID,0,VALID,100,VALID,0.0339617,VALID,19.604,VALID,157,VALID,1.22866,
2008-02-09, 01:33:00,VALID,917.304,VALID,0,VALID,100,VALID,0,VALID,19.5878,VALID,151,VALID,0.613104,
2008-02-09, 01:34:00,VALID,917.3,VALID,0,VALID,100,VALID,0,VALID,19.5878,VALID,159,VALID,0.520089,
2008-02-09, 01:35:00,VALID,917.305,VALID,0,VALID,100,VALID,0,VALID,19.5885,VALID,159,VALID,0.89826,
2008-02-09, 01:36:00,VALID,917.302,VALID,0,VALID,100,VALID,-0.0339617,VALID,19.5583,VALID,170,VALID,0.381359,
2008-02-09, 01:37:00,VALID,917.302,VALID,0,VALID,100,VALID,-0.0169808,VALID,19.5653,VALID,174,VALID,0,
2008-02-09, 01:38:00,VALID,917.31,VALID,0,VALID,100,VALID,-0.0509425,VALID,19.5655,VALID,178,VALID,0.0844494,
2008-02-09, 01:39:00,VALID,917.312,VALID,0,VALID,100,VALID,-0.0509425,VALID,19.5653,VALID,151,VALID,0.615699,
2008-02-09, 01:40:00,VALID,917.307,VALID,0,VALID,100,VALID,0,VALID,19.5588,VALID,163,VALID,0.363554,
2008-02-09, 01:41:00,VALID,917.292,VALID,0,VALID,100,VALID,-0.0509425,VALID,19.5663,VALID,185,VALID,0.104167,
2008-02-09, 01:42:00,VALID,917.281,VALID,0,VALID,100,VALID,0,VALID,19.5391,VALID,148,VALID,0.734375,
2008-02-09, 01:43:00,VALID,917.267,VALID,0,VALID,100,VALID,-0.0169808,VALID,19.5264,VALID,145,VALID,0.46984,
2008-02-09, 01:44:00,VALID,917.265,VALID,0,VALID,100,VALID,0,VALID,19.5333,VALID,154,VALID,0.999112,
2008-02-09, 01:45:00,VALID,917.253,VALID,0,VALID,100,VALID,-0.0169808,VALID,19.5199,VALID,142,VALID,1.25972,
2008-02-09, 01:46:00,VALID,917.248,VALID,0,VALID,100,VALID,-0.0169808,VALID,19.5196,VALID,156,VALID,1.00145,
2008-02-09, 01:47:00,VALID,917.237,VALID,0,VALID,100,VALID,-0.0339617,VALID,19.5131,VALID,147,VALID,0.919331,
2008-02-09, 01:48:00,VALID,917.238,VALID,0,VALID,100,VALID,-0.0169808,VALID,19.5099,VALID,149,VALID,0.853261,
2008-02-09, 01:49:00,VALID,917.234,VALID,0,VALID,100,VALID,-0.0169808,VALID,19.5169,VALID,146,VALID,0.89375,
2008-02-09, 01:50:00,VALID,917.241,VALID,0,VALID,100,VALID,0,VALID,19.5034,VALID,145,VALID,1.34961,
2008-02-09, 01:51:00,VALID,917.228,VALID,0,VALID,100,VALID,0,VALID,19.5131,VALID,151,VALID,0.966844,
2008-02-09, 01:52:00,VALID,917.208,VALID,0,VALID,100,VALID,0,VALID,19.5261,VALID,158,VALID,0.963224,
2008-02-09, 01:53:00,VALID,917.195,VALID,0,VALID,100,VALID,0,VALID,19.5261,VALID,157,VALID,0.926781,
2008-02-09, 01:54:00,VALID,917.188,VALID,0,VALID,100,VALID,-0.0509425,VALID,19.5261,VALID,157,VALID,0.927507,
2008-02-09, 01:55:00,VALID,917.185,VALID,0,VALID,100,VALID,0,VALID,19.5291,VALID,160,VALID,1.37092,
2008-02-09, 01:56:00,VALID,917.165,VALID,0,VALID,100,VALID,0,VALID,19.5358,VALID,148,VALID,1.1217,
2008-02-09, 01:57:00,VALID,917.16,VALID,0,VALID,100,VALID,-0.0169808,VALID,19.5458,VALID,162,VALID,1.09606,
2008-02-09, 01:58:00,VALID,917.181,VALID,0,VALID,100,VALID,-0.0169808,VALID,19.562,VALID,163,VALID,0.861281,
2008-02-09, 01:59:00,VALID,917.163,VALID,0,VALID,100,VALID,-0.0169808,VALID,19.5588,VALID,144,VALID,0,
2008-02-09, 02:00:00,VALID,917.161,VALID,0,VALID,100,VALID,0,VALID,19.5618,VALID,162,VALID,0.927557,
2008-02-09, 02:01:00,VALID,917.142,VALID,0,VALID,100,VALID,-0.0169808,VALID,19.5588,VALID,154,VALID,0.402902,
2008-02-09, 02:02:00,VALID,917.13,VALID,0,VALID,100,VALID,0,VALID,19.5518,VALID,156,VALID,0.222479,
2008-02-09, 02:03:00,VALID,917.124,VALID,0,VALID,100,VALID,0,VALID,19.5586,VALID,159,VALID,0.418423,
2008-02-09, 02:04:00,VALID,917.113,VALID,0,VALID,100,VALID,0.0169808,VALID,19.5518,VALID,151,VALID,0.777174,
2008-02-09, 02:05:00,VALID,917.106,VALID,0,VALID,100,VALID,0,VALID,19.5453,VALID,163,VALID,0.638579,
2008-02-09, 02:06:00,VALID,917.115,VALID,0,VALID,100,VALID,0,VALID,19.5653,VALID,176,VALID,0.462652,
2008-02-09, 02:07:00,VALID,917.121,VALID,0,VALID,100,VALID,-0.0509425,VALID,19.575,VALID,170,VALID,0.043423,
2008-02-09, 02:08:00,VALID,917.118,VALID,0,VALID,99.9977,VALID,-0.0169808,VALID,19.5783,VALID,146,VALID,0.859766,
2008-02-09, 02:09:00,VALID,917.123,VALID,0,VALID,99.9074,VALID,0,VALID,19.5878,VALID,151,VALID,0.163672,
2008-02-09, 02:10:00,VALID,917.133,VALID,0,VALID,99.8349,VALID,0,VALID,19.594,VALID,161,VALID,0,
2008-02-09, 02:11:00,VALID,917.128,VALID,0,VALID,99.9087,VALID,-0.0169808,VALID,19.6107,VALID,167,VALID,0,
2008-02-09, 02:12:00,VALID,917.118,VALID,0,VALID,99.9779,VALID,0.0169808,VALID,19.6402,VALID,174,VALID,0,
2008-02-09, 02:13:00,VALID,917.092,VALID,0,VALID,100,VALID,0.0849042,VALID,19.6354,VALID,178,VALID,0,
2008-02-09, 02:14:00,VALID,917.076,VALID,0,VALID,100,VALID,0.101885,VALID,19.612,VALID,178,VALID,0,
2008-02-09, 02:15:00,VALID,917.044,VALID,0,VALID,100,VALID,0.118866,VALID,19.596,VALID,178,VALID,0,
2008-02-09, 02:16:00,VALID,917.015,VALID,0,VALID,100,VALID,0.118866,VALID,19.5698,VALID,179,VALID,0,
2008-02-09, 02:17:00,VALID,916.991,VALID,0,VALID,100,VALID,0.0849042,VALID,19.5571,VALID,179,VALID,0,
2008-02-09, 02:18:00,VALID,916.962,VALID,0,VALID,100,VALID,0.101885,VALID,19.5374,VALID,179,VALID,0,
2008-02-09, 02:19:00,VALID,916.941,VALID,0,VALID,100,VALID,0.118866,VALID,19.5211,VALID,179,VALID,0,
2008-02-09, 02:20:00,VALID,916.936,VALID,0,VALID,100,VALID,0.101885,VALID,19.5244,VALID,179,VALID,0,
2008-02-09, 02:21:00,VALID,916.914,VALID,0,VALID,100,VALID,0.101885,VALID,19.5017,VALID,179,VALID,0,
2008-02-09, 02:22:00,VALID,916.913,VALID,0,VALID,100,VALID,0.118866,VALID,19.4984,VALID,181,VALID,0.0609375,
2008-02-09, 02:23:00,VALID,916.902,VALID,0,VALID,100,VALID,0.0679233,VALID,19.4757,VALID,185,VALID,0,
2008-02-09, 02:24:00,VALID,916.908,VALID,0,VALID,100,VALID,0.0849042,VALID,19.4598,VALID,189,VALID,0,
2008-02-09, 02:25:00,VALID,916.905,VALID,0,VALID,100,VALID,0.0679233,VALID,19.437,VALID,189,VALID,0,
2008-02-09, 02:26:00,VALID,916.889,VALID,0,VALID,100,VALID,0.0679233,VALID,19.4306,VALID,189,VALID,0,
2008-02-09, 02:27:00,VALID,916.863,VALID,0,VALID,100,VALID,0.0849042,VALID,19.4218,VALID,200,VALID,0.585938,
2008-02-09, 02:28:00,VALID,916.862,VALID,0,VALID,100,VALID,0,VALID,19.3931,VALID,205,VALID,0.23056,
2008-02-09, 02:29:00,VALID,916.839,VALID,0,VALID,100,VALID,0.0169808,VALID,19.3799,VALID,202,VALID,0.0413707,
2008-02-09, 02:30:00,VALID,916.835,VALID,0,VALID,100,VALID,0,VALID,19.3701,VALID,188,VALID,0.0185764,
2008-02-09, 02:31:00,VALID,916.805,VALID,0,VALID,100,VALID,0,VALID,19.3637,VALID,186,VALID,0,
2008-02-09, 02:32:00,VALID,916.786,VALID,0,VALID,100,VALID,0,VALID,19.3706,VALID,182,VALID,0,
2008-02-09, 02:33:00,VALID,916.765,VALID,0,VALID,100,VALID,-0.0169808,VALID,19.3736,VALID,177,VALID,0.276172,
2008-02-09, 02:34:00,VALID,916.748,VALID,0,VALID,100,VALID,0,VALID,19.3704,VALID,177,VALID,1.78125,
2008-02-09, 02:35:00,VALID,916.738,VALID,0,VALID,100,VALID,0,VALID,19.3866,VALID,179,VALID,1.36835,
2008-02-09, 02:36:00,VALID,916.731,VALID,0,VALID,100,VALID,0,VALID,19.3929,VALID,161,VALID,1.2272,
2008-02-09, 02:37:00,VALID,916.716,VALID,0,VALID,100,VALID,0,VALID,19.4161,VALID,172,VALID,1.45767,
2008-02-09, 02:38:00,VALID,916.708,VALID,0,VALID,100,VALID,0,VALID,19.4188,VALID,171,VALID,1.07315,
2008-02-09, 02:39:00,VALID,916.713,VALID,0,VALID,100,VALID,0.0339617,VALID,19.4318,VALID,156,VALID,0.507068,
2008-02-09, 02:40:00,VALID,916.711,VALID,0,VALID,100,VALID,0,VALID,19.4353,VALID,145,VALID,1.01546,
2008-02-09, 02:41:00,VALID,916.728,VALID,0,VALID,100,VALID,0,VALID,19.4353,VALID,133,VALID,0.555664,
2008-02-09, 02:42:00,VALID,916.738,VALID,0,VALID,100,VALID,0.0169808,VALID,19.445,VALID,149,VALID,1.48965,
2008-02-09, 02:43:00,VALID,916.729,VALID,0,VALID,100,VALID,-0.0169808,VALID,19.4415,VALID,147,VALID,1.6612,
2008-02-09, 02:44:00,VALID,916.74,VALID,0,VALID,100,VALID,-0.0169808,VALID,19.4582,VALID,139,VALID,1.08292,
2008-02-09, 02:45:00,VALID,916.749,VALID,0,VALID,100,VALID,-0.0339617,VALID,19.455,VALID,137,VALID,1.38932,
2008-02-09, 02:46:00,VALID,916.749,VALID,0,VALID,100,VALID,-0.0679233,VALID,19.4617,VALID,149,VALID,0.531808,
2008-02-09, 02:47:00,VALID,916.75,VALID,0,VALID,100,VALID,-0.0679233,VALID,19.468,VALID,139,VALID,1.80078,
2008-02-09, 02:48:00,VALID,916.747,VALID,0,VALID,100,VALID,-0.0169808,VALID,19.4647,VALID,152,VALID,1.38814,
2008-02-09, 02:49:00,VALID,916.735,VALID,0,VALID,100,VALID,-0.0339617,VALID,19.4645,VALID,149,VALID,1.48474,
2008-02-09, 02:50:00,VALID,916.734,VALID,0,VALID,100,VALID,-0.0339617,VALID,19.4712,VALID,139,VALID,0.843023,
2008-02-09, 02:51:00,VALID,916.728,VALID,0,VALID,100,VALID,-0.0509425,VALID,19.4642,VALID,156,VALID,1.16832,
2008-02-09, 02:52:00,VALID,916.714,VALID,0,VALID,100,VALID,-0.0679233,VALID,19.4814,VALID,151,VALID,1.29863,
2008-02-09, 02:53:00,VALID,916.703,VALID,0,VALID,100,VALID,-0.0849042,VALID,19.4814,VALID,141,VALID,1.1181,
2008-02-09, 02:54:00,VALID,916.688,VALID,0,VALID,100,VALID,-0.101885,VALID,19.4745,VALID,145,VALID,1.59464,
2008-02-09, 02:55:00,VALID,916.68,VALID,0,VALID,100,VALID,-0.0509425,VALID,19.4782,VALID,133,VALID,1.17259,
2008-02-09, 02:56:00,VALID,916.652,VALID,0,VALID,100,VALID,-0.0849042,VALID,19.4712,VALID,143,VALID,1.42278,
2008-02-09, 02:57:00,VALID,916.655,VALID,0,VALID,100,VALID,-0.0339617,VALID,19.4677,VALID,150,VALID,1.36191,
2008-02-09, 02:58:00,VALID,916.635,VALID,0,VALID,100,VALID,0.0169808,VALID,19.4632,VALID,148,VALID,1.3064,
2008-02-09, 02:59:00,VALID,916.639,VALID,0,VALID,100,VALID,0.0169808,VALID,19.453,VALID,145,VALID,1.01687,
2008-02-09, 03:00:00,VALID,916.633,VALID,0,VALID,100,VALID,0.0509425,VALID,19.4572,VALID,136,VALID,1.11396,
2008-02-09, 03:01:00,VALID,916.633,VALID,0,VALID,100,VALID,0.0169808,VALID,19.454,VALID,145,VALID,1.14993,
2008-02-09, 03:02:00,VALID,916.633,VALID,0,VALID,100,VALID,0.0509425,VALID,19.447,VALID,139,VALID,1.04725,
2008-02-09, 03:03:00,VALID,916.638,VALID,0,VALID,100,VALID,0.0339617,VALID,19.4438,VALID,145,VALID,0.403525,
2008-02-09, 03:04:00,VALID,916.638,VALID,0,VALID,100,VALID,0.0169808,VALID,19.447,VALID,148,VALID,1.35156,
2008-02-09, 03:05:00,VALID,916.634,VALID,0,VALID,100,VALID,0.0509425,VALID,19.447,VALID,152,VALID,1.11044,
2008-02-09, 03:06:00,VALID,916.643,VALID,0,VALID,100,VALID,0.0509425,VALID,19.4503,VALID,156,VALID,0.595486,
2008-02-09, 03:07:00,VALID,916.647,VALID,0,VALID,100,VALID,0.0509425,VALID,19.44,VALID,178,VALID,1.04783,
2008-02-09, 03:08:00,VALID,916.627,VALID,0,VALID,100,VALID,0.0679233,VALID,19.4505,VALID,175,VALID,1.48157,
2008-02-09, 03:09:00,VALID,916.617,VALID,0,VALID,100,VALID,0.0339617,VALID,19.45,VALID,159,VALID,1.26108,
2008-02-09, 03:10:00,VALID,916.613,VALID,0,VALID,100,VALID,0.0679233,VALID,19.4368,VALID,160,VALID,1.56595,
2008-02-09, 03:11:00,VALID,916.6,VALID,0,VALID,100,VALID,0.0509425,VALID,19.4273,VALID,155,VALID,1.47337,
2008-02-09, 03:12:00,VALID,916.604,VALID,0,VALID,100,VALID,0.0509425,VALID,19.4116,VALID,145,VALID,1.43559,
2008-02-09, 03:13:00,VALID,916.598,VALID,0,VALID,100,VALID,0,VALID,19.4218,VALID,162,VALID,1.29724,
2008-02-09, 03:14:00,VALID,916.607,VALID,0,VALID,100,VALID,0.0339617,VALID,19.4118,VALID,152,VALID,1.90789,
2008-02-09, 03:15:00,VALID,916.608,VALID,0,VALID,100,VALID,0.0849042,VALID,19.4153,VALID,155,VALID,1.71239,
2008-02-09, 03:16:00,VALID,916.611,VALID,0,VALID,100,VALID,0,VALID,19.4183,VALID,143,VALID,1.5122,
2008-02-09, 03:17:00,VALID,916.619,VALID,0,VALID,100,VALID,0,VALID,19.4218,VALID,153,VALID,1.24219,
2008-02-09, 03:18:00,VALID,916.625,VALID,0,VALID,100,VALID,0.0509425,VALID,19.4211,VALID,149,VALID,1.05107,
2008-02-09, 03:19:00,VALID,916.622,VALID,0,VALID,100,VALID,0.0849042,VALID,19.4443,VALID,141,VALID,0.531795,
2008-02-09, 03:20:00,VALID,916.618,VALID,0,VALID,100,VALID,0.0509425,VALID,19.4473,VALID,148,VALID,1.49423,
2008-02-09, 03:21:00,VALID,916.628,VALID,0,VALID,100,VALID,0.0509425,VALID,19.4538,VALID,159,VALID,1.21621,
2008-02-09, 03:22:00,VALID,916.641,VALID,0,VALID,100,VALID,0.0509425,VALID,19.4627,VALID,144,VALID,0.719893,
2008-02-09, 03:23:00,VALID,916.642,VALID,0,VALID,100,VALID,0.0679233,VALID,19.4692,VALID,166,VALID,1.13418,
2008-02-09, 03:24:00,VALID,916.645,VALID,0,VALID,99.9969,VALID,0.0339617,VALID,19.4894,VALID,167,VALID,1.2357,
2008-02-09, 03:25:00,VALID,916.645,VALID,0,VALID,99.943,VALID,0.0849042,VALID,19.4957,VALID,167,VALID,1.68788,
2008-02-09, 03:26:00,VALID,916.655,VALID,0,VALID,99.8286,VALID,0.0339617,VALID,19.4887,VALID,142,VALID,1.68502,
2008-02-09, 03:27:00,VALID,916.673,VALID,0,VALID,99.7981,VALID,0.0169808,VALID,19.5019,VALID,166,VALID,0.938388,
2008-02-09, 03:28:00,VALID,916.678,VALID,0,VALID,99.7828,VALID,0.0849042,VALID,19.5117,VALID,172,VALID,0.0611979,
2008-02-09, 03:29:00,VALID,916.683,VALID,0,VALID,99.7103,VALID,0.0339617,VALID,19.5249,VALID,166,VALID,0.649164,
2008-02-09, 03:30:00,VALID,916.675,VALID,0,VALID,99.5679,VALID,0.0169808,VALID,19.5254,VALID,129,VALID,1.35357,
2008-02-09, 03:31:00,VALID,916.685,VALID,0,VALID,99.4408,VALID,0.0849042,VALID,19.5246,VALID,154,VALID,0.791146,
2008-02-09, 03:32:00,VALID,916.671,VALID,0,VALID,99.4229,VALID,0.0339617,VALID,19.5351,VALID,169,VALID,0.272529,
2008-02-09, 03:33:00,VALID,916.681,VALID,0,VALID,99.3543,VALID,0.0679233,VALID,19.5411,VALID,159,VALID,0.692645,
2008-02-09, 03:34:00,VALID,916.674,VALID,0,VALID,99.3594,VALID,0.0509425,VALID,19.5441,VALID,143,VALID,0.333984,
2008-02-09, 03:35:00,VALID,916.666,VALID,0,VALID,99.3428,VALID,0.0509425,VALID,19.5476,VALID,145,VALID,0.513951,
2008-02-09, 03:36:00,VALID,916.679,VALID,0,VALID,99.292,VALID,0.0509425,VALID,19.5506,VALID,161,VALID,0.429688,
2008-02-09, 03:37:00,VALID,916.664,VALID,0,VALID,99.3047,VALID,0.0849042,VALID,19.5438,VALID,147,VALID,0.471354,
2008-02-09, 03:38:00,VALID,916.677,VALID,0,VALID,99.2538,VALID,0.0849042,VALID,19.5408,VALID,156,VALID,0.5867,
2008-02-09, 03:39:00,VALID,916.654,VALID,0,VALID,99.2564,VALID,0.0169808,VALID,19.5214,VALID,154,VALID,0.339844,
2008-02-09, 03:40:00,VALID,916.657,VALID,0,VALID,99.2602,VALID,0.0509425,VALID,19.5281,VALID,146,VALID,0.58327,
2008-02-09, 03:41:00,VALID,916.635,VALID,0,VALID,99.2564,VALID,0.0339617,VALID,19.5316,VALID,137,VALID,0.139695,
2008-02-09, 03:42:00,VALID,916.633,VALID,0,VALID,99.1979,VALID,0.0509425,VALID,19.5186,VALID,180,VALID,1.01843,
2008-02-09, 03:43:00,VALID,916.618,VALID,0,VALID,99.1432,VALID,0,VALID,19.5231,VALID,157,VALID,0.532924,